Regional Weather Roundup
Issued by NWS

Home | Current Version | Previous Version | Text Only | Print | Product List | Glossary On
Versions: 1 2 3 4 5 6 7 8 9 10 11 12 13 14 15 16 17 18 19 20 21 22 23 24 25 26 27 28 29 30 31 32 33 34 35 36 37 38 39 40 41 42 43 44 45 46 47 48 49
000
ASUS46 KSEW 031910
RWRWA

WASHINGTON REGIONAL WEATHER ROUNDUP
NATIONAL WEATHER SERVICE SEATTLE WA
1100 AM PST TUE MAR 03 2015

NOTE:"FAIR" INDICATES FEW OR NO CLOUDS BELOW 12,000 FEET WITH NO
SIGNIFICANT WEATHER AND/OR OBSTRUCTIONS TO VISIBILITY.

WAZ505-507>509-032000-
SEATTLE, TACOMA, EVERETT, AND VICINITY

CITY           SKY/WX    TMP DP  RH WIND       PRES   REMARKS
EVERETT        FAIR      44  28  53 VRB3      30.25S
BOEING FIELD   FAIR      48  31  51 E3        30.26F
RENTON         FAIR      45  33  63 NW6       30.26F
SEATAC AIRPORT FAIR      46  26  45 N6        30.26S
JBLM-MCCHORD   FAIR      47  28  47 VRB2      30.26S
PUYALLUP       FAIR      46  30  53 CALM      30.25S
BREMERTON      FAIR      46  25  42 NE9       30.26F
JBLM-FT LEWIS  FAIR      47  25  43 N9        30.25S
TACOMA NARROWS FAIR      44  29  55 VRB5      30.26S
$$

WAZ001-503-506-510-514-515-032000-
NORTH INTERIOR

CITY           SKY/WX    TMP DP  RH WIND       PRES   REMARKS
BELLINGHAM     FAIR      46  10  23 NE12      30.27S
FRIDAY HARBOR  FAIR      48  18  30 SE5       30.28F
EASTSOUND      FAIR      45  10  24 NE7       30.27S
PORT ANGELES   FAIR      46  21  37 NE3       30.28S
NAS WHIDBEY    PTSUNNY   48  22  35 NW7       30.28S
ARLINGTON      FAIR      45  25  45 CALM      30.27F
BURLINGTON     SUNNY     46  19  34 S5        30.28S
$$

WAZ020-022-039-040-504-511-512-032000-
SOUTHWEST INTERIOR

CITY           SKY/WX    TMP DP  RH WIND       PRES   REMARKS
SHELTON        FAIR      45  27  49 E8        30.24S
OLYMPIA        FAIR      47  27  45 E6        30.26S
CHEHALIS       NOT AVBL
KELSO          FAIR      46  34  61 CALM      30.28F
VANCOUVER      FAIR      46  33  60 SW9       30.24S
SCAPPOOSE, OR  FAIR      49  28  44 E5        30.24S
PORTLAND, OR   FAIR      47  31  53 NW8       30.25R
$$

WAZ021-516-517-032000-
WASHINGTON COAST

CITY           SKY/WX    TMP DP  RH WIND       PRES   REMARKS
FORKS          FAIR      50  26  39 CALM      30.24S
HOQUIAM        FAIR      47  34  60 E7        30.24S
ASTORIA, OR    FAIR      49  37  63 N5        30.23S
$$

WAZ019-023-024-040-518-519-032000-
CASCADE MOUNTAINS AND COLUMBIA GORGE

CITY           SKY/WX    TMP DP  RH WIND       PRES   REMARKS
TROUTDALE, OR  FAIR      51  24  34 E10       30.23S
THE DALLES, OR FAIR      49  16  26 VRB3      30.27S
$$

WAZ026-027-041>044-520-521-032000-
EAST SLOPES

CITY           SKY/WX    TMP DP  RH WIND       PRES   REMARKS
OMAK           FAIR      39   1  20 N13G24    30.24F
WENATCHEE      FAIR      41  16  36 S3        30.22F
ELLENSBURG     FAIR      42  14  32 S3        30.20F
YAKIMA         PTSUNNY   45  11  25 W5        30.25S
$$

WAZ028-034-035-032000-
COLUMBIA BASIN

CITY           SKY/WX    TMP DP  RH WIND       PRES   REMARKS
EPHRATA        FAIR      42   2  18 N8        30.22F
MOSES LAKE     FAIR      42   6  22 NE3       30.23F
PASCO          FAIR      43  18  36 VRB3      30.28F
HERMISTON, OR  FAIR      43  22  43 N6        30.26F
$$

WAZ036>038-032000-
NORTHEAST WASHINGTON

CITY           SKY/WX    TMP DP  RH WIND       PRES   REMARKS
SPOKANE GEIGER FAIR      31  12  45 NE3       30.16S
SPOKANE FELTS  FAIR      33  13  43 CALM      30.19F
FAIRCHILD AFB  FAIR      30  16  55 VRB1      30.15S
COEURDALENE,ID FAIR      30  10  43 CALM      30.15F
DEER PARK      FAIR      31  14  49 CALM      30.18S
$$

WAZ029>033-032000-
SOUTHEAST WASHINGTON

CITY           SKY/WX    TMP DP  RH WIND       PRES   REMARKS
PULLMAN        FAIR      33  19  56 SW6       30.16S
LEWISTON, ID   FAIR      35  21  56 NW5       30.20F
WALLA WALLA    FAIR      38  22  52 SW7       30.23S
PENDLETON, OR  FAIR      38  20  48 MISG      30.22R
$$


USA.gov is the U.S. government's official web portal to all federal, state and local government web resources and services.